Regional Weather Roundup
Issued by NWS

Home | Current Version | Previous Version | Graphics & Text | Print | Product List | Glossary On
Versions: 1 2 3 4 5 6 7 8 9 10 11 12 13 14 15 16 17 18 19 20 21 22 23 24 25 26 27 28 29 30 31 32 33 34 35 36 37 38 39 40 41 42 43 44 45 46 47 48 49 50
490
ASUS43 KLSX 201707
RWRMO

WEATHER SUMMARY FOR MISSOURI
NATIONAL WEATHER SERVICE SPRINGFIELD MO
1100 AM CST MON FEB 20 2017

NOTE: "FAIR" INDICATES FEW OR NO CLOUDS BELOW 12,000 FEET WITH NO
       SIGNIFICANT WEATHER AND/OR OBSTRUCTIONS TO VISIBILITY.
       CURRENT SKY AND/OR WEATHER CONDITIONS ARE NOT AVAILABLE FOR
       CHILLICOTHE AND FARMINGTON.

MOZ001>031-035>038-043-044-053-054-201800-
...NORTHERN AND WESTERN MISSOURI...

CITY           SKY/WX    TMP DP  RH WIND       PRES   REMARKS
KANSAS CTY INT CLOUDY    61  58  90 S10       29.83R
KANSAS C DTWN  CLOUDY    63  58  83 S13       29.84R
LEE`S SUMMIT   CLOUDY    61  58  90 S12       29.84R
ST JOSEPH      CLOUDY    62  59  90 S12       29.81R
CHILLICOTHE      N/A     62  58  86 SE9       29.85S
KIRKSVILLE     CLOUDY    66  54  65 S14       29.89F

$$
MOZ066>068-077>081-088>096-101>105-201800-
...SOUTHWEST MISSOURI...

CITY           SKY/WX    TMP DP  RH WIND       PRES   REMARKS
SPRINGFIELD    CLOUDY    64  58  80 SE18G25   29.92F
JOPLIN         CLOUDY    65  61  87 S14       29.88F
BRANSON        LGT RAIN  64  59  82 S9G20     29.97F

$$
MOZ032>034-039>042-045>050-055>058-069>072-201800-
...CENTRAL MISSOURI...

CITY           SKY/WX    TMP DP  RH WIND       PRES   REMARKS
COLUMBIA       CLOUDY    70  51  51 S20G32    29.93S
JEFFERSON CITY CLOUDY    71  50  47 S12G24    29.93F
ROLLA          LGT RAIN  69  50  50 S22G30    29.97F
SEDALIA        CLOUDY    69  56  62 S23G33    29.88F
WHITEMAN AFB   DRIZZLE   64  61  88 S18G25    29.85F
WARRENSBURG    LGT RAIN  63  55  77 SE12      29.84F
OSAGE BEACH    CLOUDY    70  55  59 S17G28    29.94F

$$
MOZ051-052-059>065-201800-
...EAST CENTRAL MISSOURI...

CITY           SKY/WX    TMP DP  RH WIND       PRES   REMARKS
ST LOUIS INTL  PTSUNNY   69  52  54 SE12      30.03S
SPIRIT OF STL  PTSUNNY   73  54  51 S17G24    30.00S
ST CHARLES     MOSUNNY   69  52  54 SE15      30.01F

$$
MOZ072>076-082>087-097>100-106>115-201800-
...SOUTH CENTRAL AND SOUTHEAST MISSOURI...

CITY           SKY/WX    TMP DP  RH WIND       PRES   REMARKS
CAPE GIRARDEAU PTSUNNY   67  54  63 S14       30.10F
FARMINGTON     MOSUNNY   68  54  60 S14G23    30.06
POPLAR BLUFF   PTSUNNY   66  55  67 SE6       30.09S
WEST PLAINS    PTSUNNY   68  50  52 S17G30    30.03F

$$



USA.gov is the U.S. government's official web portal to all federal, state and local government web resources and services.